This demonstration page uses our WeatherBlox Daily Observations layout. Learn more.

Left ArrowRight Arrow

39.01783, -85.05884

Hourly Observations for May 14, 2015

Temp ( °F °C ) Dew Point ( °F °C ) Humidity (%) Winds ( mph kmh ) Pressure ( in mb ) Visibility ( mi km ) Precip ( " mm )
12:52 am 00:52 Partly Cloudy 58 14.4 41 5 53 53 ENE 13 20 30.37 1028 10 16 0.00 0.00
1:52 am 01:52 Mostly Cloudy 54 12.2 42 5.6 64 64 ENE 16 26 30.36 1028 10 16 0.00 0.00
2:52 am 02:52 Mostly Cloudy 52 11.1 42 5.6 69 69 E 13 20 30.35 1028 10 16 0.00 0.00
3:52 am 03:52 Cloudy 51 10.6 43 6.1 74 74 ENE 10 17 30.35 1028 10 16 0.00 0.00
4:52 am 04:52 Mostly Cloudy 50 10 42 5.6 74 74 E 10 17 30.35 1028 10 16 0.00 0.00
5:52 am 05:52 Mostly Cloudy 48 8.9 41 5 77 77 E 9 15 30.34 1027 10 16 0.00 0.00
6:52 am 06:52 Mostly Cloudy 48 8.9 41 5 77 77 E 8 13 30.37 1028 10 16 0.00 0.00
7:52 am 07:52 Mostly Cloudy 49 9.4 41 5 74 74 E 10 17 30.38 1029 10 16 0.00 0.00
8:52 am 08:52 Mostly Cloudy 52 11.1 41 5 66 66 E 13 20 30.37 1029 10 16 0.00 0.00
9:52 am 09:52 Mostly Cloudy 56 13.3 43 6.1 62 62 E 12 19 30.36 1028 10 16 0.00 0.00
10:52 am 10:52 Mostly Cloudy 60 15.6 43 6.1 53 53 SE 10 17 30.36 1028 10 16 0.00 0.00
11:52 am 11:52 Cloudy 62 16.7 43 6.1 50 50 E 10 17 30.34 1028 10 16 0.00 0.00
12:52 pm 12:52 Cloudy 64 17.8 43 6.1 46 46 VRB 5 7 30.32 1027 10 16 0.00 0.00
1:52 pm 13:52 Cloudy 65 18.3 42 5.6 43 43 Calm 30.29 1026 10 16 0.00 0.00
2:52 pm 14:52 Mostly Cloudy 69 20.6 45 7.2 42 42 SSE 12 19 30.27 1025 10 16 0.00 0.00
3:52 pm 15:52 Cloudy 69 20.6 45 7.2 42 42 SE 7 11 30.24 1024 10 16 0.00 0.00
4:52 pm 16:52 Cloudy 69 20.6 46 7.8 44 44 ESE 9 15 30.21 1023 10 16 0.00 0.00
5:52 pm 17:52 Cloudy 68 20 46 7.8 45 45 SE 6 9 30.21 1023 10 16 0.00 0.00
6:52 pm 18:52 Cloudy 67 19.4 48 8.9 51 51 S 3 6 30.21 1023 10 16 0.00 0.00
7:52 pm 19:52 Cloudy 66 18.9 47 8.3 50 50 ESE 7 11 30.19 1022 10 16 0.00 0.00
8:52 pm 20:52 Cloudy 65 18.3 47 8.3 52 52 ESE 7 11 30.16 1022 10 16 0.00 0.00
9:52 pm 21:52 Cloudy 64 17.8 47 8.3 54 54 SE 6 9 30.16 1022 10 16 0.00 0.00
10:52 pm 22:52 Cloudy 64 17.8 48 8.9 56 56 ESE 7 11 30.16 1021 10 16 0.00 0.00
11:52 pm 23:52 Cloudy 64 17.8 49 9.4 58 58 SE 6 9 30.16 1021 10 16 0.00 0.00

Powered by AerisWeather